Regional Weather Roundup
Issued by NWS

Home | Current Version | Previous Version | Graphics & Text | Print | Product List | Glossary On
Versions: 1 2 3 4 5 6 7 8 9 10 11 12 13 14 15 16 17 18 19 20 21 22 23 24 25 26 27 28 29 30 31 32 33 34 35 36 37 38 39 40 41 42 43 44 45 46 47 48 49 50
000
ASUS43 KFSD 230602
RWRSD

WEATHER ROUNDUP FOR SOUTH DAKOTA
NATIONAL WEATHER SERVICE SIOUX FALLS SD
100 AM CDT SUN APR 23 2017

NOTE: "FAIR" INDICATES FEW OR NO CLOUDS BELOW 12,000 FEET WITH NO
SIGNIFICANT WEATHER AND/OR OBSTRUCTIONS TO VISIBILITY.


SDZ001>005-009-010-012>017-230700-
NORTHWEST AND NORTH CENTRAL SOUTH DAKOTA

CITY           SKY/WX    TMP DP  RH WIND       PRES   REMARKS
BUFFALO          N/A     50  40  68 E10       29.90F
FAITH            N/A     46  38  73 SE14      29.99F
MOBRIDGE       CLOUDY    54  38  54 NE3       30.01S
$$

SDZ012>016-024>037-041>051-057-063-072>074-230700-
SOUTHWEST AND SOUTH CENTRAL SOUTH DAKOTA

CITY           SKY/WX    TMP DP  RH WIND       PRES   REMARKS
RAPID CTY ARPT CLEAR     40  32  73 S8        30.01F
PIERRE         CLEAR     54  30  40 SW9G20    30.04F
CUSTER         CLOUDY    43  26  51 SW7       30.08F
ELLSWORTH AFB  CLEAR     44  33  65 S9        30.00  HAZE
PHILIP         CLEAR     49  32  52 W5        30.04S
PINE RIDGE     CLEAR     48  33  56 S15       30.08F
SPEARFISH      FAIR      43  32  65 CALM      29.99F
WINNER         FAIR      53  31  42 S15       30.10S
$$

SDZ004>011-016>023-039-040-230700-
NORTHEAST SOUTH DAKOTA

CITY           SKY/WX    TMP DP  RH WIND       PRES   REMARKS
ABERDEEN       MOCLDY    41  34  76 NE14G24   30.12R
WATERTOWN      CLEAR     49  38  65 SW12      30.07F
BROOKINGS      CLEAR     47  37  68 S10       30.12F
SISSETON         N/A     40  36  86 N16       30.12R
$$

SDZ017-020-022-023-036>040-048>070-230700-
SOUTHEAST SOUTH DAKOTA

CITY           SKY/WX    TMP DP  RH WIND       PRES   REMARKS
SIOUX FALLS    CLEAR     51  36  56 SW5       30.14S
HURON          CLEAR     49  38  65 S10       30.09S
CHAMBERLAIN    CLEAR     51  39  63 SE9       30.09R
MITCHELL       CLEAR     54  37  52 S9        30.11F
YANKTON        CLEAR     50  34  53 CALM      30.15S
$$

ABBREVIATIONS USED IN REMARKS
   TC - TEMPERATURE IN CELSIUS
  WCI - WIND CHILL INDEX
   HX - HEAT INDEX
  VSB - VISIBILITY




USA.gov is the U.S. government's official web portal to all federal, state and local government web resources and services.